Time,TemperatureF,DewpointF,PressureIn,WindDirection,WindDirectionDegrees,WindSpeedMPH,WindSpeedGustMPH,Humidity,HourlyPrecipIn,Conditions,Clouds,dailyrainin,SoftwareType,DateUTC
2013-03-25 00:00:00,35.3,26.8,29.74,East,81,8.0,16.0,71,0.00,,,0.00,Wunderground v.1.15,2013-03-25 04:00:00,
2013-03-25 00:05:00,35.2,26.7,29.74,East,85,13.0,13.0,71,0.00,,,0.00,Wunderground v.1.15,2013-03-25 04:05:00,
2013-03-25 00:10:00,35.2,26.7,29.73,ENE,74,13.0,13.0,71,0.00,,,0.00,Wunderground v.1.15,2013-03-25 04:10:00,
2013-03-25 00:16:00,35.2,27.1,29.73,ENE,78,11.0,15.0,72,0.00,,,0.00,Wunderground v.1.15,2013-03-25 04:16:00,
2013-03-25 00:21:00,35.1,27.0,29.73,East,86,9.0,9.0,72,0.00,,,0.00,Wunderground v.1.15,2013-03-25 04:21:00,
2013-03-25 00:26:00,35.1,27.3,29.72,East,85,6.0,9.0,73,0.00,,,0.00,Wunderground v.1.15,2013-03-25 04:26:00,
2013-03-25 00:32:00,35.0,27.2,29.72,East,82,9.0,11.0,73,0.00,,,0.00,Wunderground v.1.15,2013-03-25 04:32:00,
2013-03-25 00:37:00,35.0,27.5,29.72,ESE,102,5.0,11.0,74,0.00,,,0.00,Wunderground v.1.15,2013-03-25 04:37:00,
2013-03-25 00:42:00,35.0,27.5,29.72,East,84,7.0,11.0,74,0.00,,,0.00,Wunderground v.1.15,2013-03-25 04:42:00,
2013-03-25 00:47:00,34.9,27.5,29.72,East,101,7.0,11.0,74,0.00,,,0.00,Wunderground v.1.15,2013-03-25 04:47:00,
2013-03-25 00:53:00,34.9,27.8,29.72,ENE,63,3.0,9.0,75,0.00,,,0.00,Wunderground v.1.15,2013-03-25 04:53:00,
2013-03-25 00:58:00,34.8,27.7,29.72,East,86,9.0,9.0,75,0.00,,,0.00,Wunderground v.1.15,2013-03-25 04:58:00,
2013-03-25 01:03:00,34.8,27.7,29.72,ENE,73,8.0,10.0,75,0.00,,,0.00,Wunderground v.1.15,2013-03-25 05:03:00,
2013-03-25 01:08:00,34.8,27.7,29.71,ENE,77,10.0,10.0,75,0.00,,,0.00,Wunderground v.1.15,2013-03-25 05:08:00,
2013-03-25 01:14:00,34.7,27.9,29.71,ENE,60,3.0,10.0,76,0.00,,,0.00,Wunderground v.1.15,2013-03-25 05:14:00,
2013-03-25 01:19:00,34.7,27.9,29.70,East,90,7.0,10.0,76,0.00,,,0.00,Wunderground v.1.15,2013-03-25 05:19:00,
2013-03-25 01:25:00,34.7,27.6,29.70,East,94,11.0,11.0,75,0.00,,,0.00,Wunderground v.1.15,2013-03-25 05:25:00,
2013-03-25 01:30:00,34.7,27.6,29.70,ENE,78,11.0,11.0,75,0.00,,,0.00,Wunderground v.1.15,2013-03-25 05:30:00,
2013-03-25 01:36:00,34.7,27.6,29.70,ENE,74,7.0,12.0,75,0.00,,,0.00,Wunderground v.1.15,2013-03-25 05:36:00,
2013-03-25 01:41:00,34.7,27.6,29.70,East,97,8.0,8.0,75,0.00,,,0.00,Wunderground v.1.15,2013-03-25 05:41:00,
2013-03-25 01:46:00,34.7,27.9,29.70,NE,56,7.0,13.0,76,0.00,,,0.00,Wunderground v.1.15,2013-03-25 05:46:00,
2013-03-25 01:52:00,34.7,27.9,29.69,East,90,10.0,10.0,76,0.00,,,0.00,Wunderground v.1.15,2013-03-25 05:52:00,
2013-03-25 01:57:00,34.7,27.9,29.69,East,84,8.0,15.0,76,0.00,,,0.00,Wunderground v.1.15,2013-03-25 05:57:00,
2013-03-25 02:02:00,34.6,28.1,29.69,ENE,71,9.0,9.0,77,0.00,,,0.00,Wunderground v.1.15,2013-03-25 06:02:00,
2013-03-25 02:07:00,34.7,28.2,29.69,ENE,74,9.0,14.0,77,0.00,,,0.00,Wunderground v.1.15,2013-03-25 06:07:00,
2013-03-25 02:12:00,34.6,28.1,29.69,East,90,10.0,11.0,77,0.00,,,0.00,Wunderground v.1.15,2013-03-25 06:12:00,
2013-03-25 02:17:00,34.6,28.1,29.69,ENE,77,4.0,11.0,77,0.00,,,0.00,Wunderground v.1.15,2013-03-25 06:17:00,
2013-03-25 02:22:00,34.5,28.0,29.69,ENE,74,13.0,14.0,77,0.00,,,0.00,Wunderground v.1.15,2013-03-25 06:22:00,
2013-03-25 02:27:00,34.4,27.9,29.69,ENE,63,15.0,15.0,77,0.00,,,0.00,Wunderground v.1.15,2013-03-25 06:27:00,
2013-03-25 02:32:00,34.4,28.2,29.69,ENE,75,9.0,14.0,78,0.00,,,0.00,Wunderground v.1.15,2013-03-25 06:32:00,
2013-03-25 02:37:00,34.3,28.2,29.69,ENE,75,5.0,14.0,78,0.00,,,0.00,Wunderground v.1.15,2013-03-25 06:37:00,
2013-03-25 02:42:00,34.2,28.1,29.69,ENE,72,9.0,9.0,78,0.00,,,0.00,Wunderground v.1.15,2013-03-25 06:42:00,
2013-03-25 02:47:00,34.1,28.0,29.68,ENE,73,13.0,15.0,78,0.00,,,0.00,Wunderground v.1.15,2013-03-25 06:47:00,
2013-03-25 02:52:00,34.1,28.0,29.68,ENE,67,10.0,13.0,78,0.00,,,0.00,Wunderground v.1.15,2013-03-25 06:52:00,
2013-03-25 02:57:00,34.1,28.0,29.68,ENE,77,9.0,13.0,78,0.00,,,0.00,Wunderground v.1.15,2013-03-25 06:57:00,
2013-03-25 03:02:00,34.1,27.6,29.68,ENE,72,9.0,13.0,77,0.00,,,0.00,Wunderground v.1.15,2013-03-25 07:02:00,
2013-03-25 03:08:00,34.0,27.5,29.68,East,90,7.0,13.0,77,0.00,,,0.00,Wunderground v.1.15,2013-03-25 07:08:00,
2013-03-25 03:13:00,34.0,27.5,29.68,East,86,6.0,10.0,77,0.00,,,0.00,Wunderground v.1.15,2013-03-25 07:13:00,
2013-03-25 03:18:00,33.9,27.4,29.68,East,80,5.0,12.0,77,0.00,,,0.00,Wunderground v.1.15,2013-03-25 07:18:00,
2013-03-25 03:23:00,33.8,27.4,29.68,East,82,5.0,8.0,77,0.00,,,0.00,Wunderground v.1.15,2013-03-25 07:23:00,
2013-03-25 03:28:00,33.7,27.3,29.68,East,87,6.0,13.0,77,0.00,,,0.00,Wunderground v.1.15,2013-03-25 07:28:00,
2013-03-25 03:33:00,33.6,27.5,29.68,ENE,78,4.0,8.0,78,0.00,,,0.00,Wunderground v.1.15,2013-03-25 07:33:00,
2013-03-25 03:38:00,33.5,27.4,29.67,ENE,61,5.0,9.0,78,0.00,,,0.00,Wunderground v.1.15,2013-03-25 07:38:00,
2013-03-25 03:43:00,33.4,27.3,29.67,ENE,63,4.0,8.0,78,0.00,,,0.00,Wunderground v.1.15,2013-03-25 07:43:00,
2013-03-25 03:48:00,33.3,27.2,29.67,ENE,76,5.0,9.0,78,0.00,,,0.00,Wunderground v.1.15,2013-03-25 07:48:00,
2013-03-25 03:53:00,33.2,27.1,29.67,East,80,10.0,10.0,78,0.00,,,0.00,Wunderground v.1.15,2013-03-25 07:53:00,
2013-03-25 03:58:00,33.1,27.0,29.67,East,80,3.0,10.0,78,0.00,,,0.00,Wunderground v.1.15,2013-03-25 07:58:00,
2013-03-25 04:03:00,33.0,26.9,29.66,East,86,7.0,7.0,78,0.00,,,0.00,Wunderground v.1.15,2013-03-25 08:03:00,
2013-03-25 04:08:00,33.0,26.9,29.66,NNE,18,2.0,11.0,78,0.00,,,0.00,Wunderground v.1.15,2013-03-25 08:08:00,
2013-03-25 04:13:00,33.0,26.9,29.66,East,80,5.0,7.0,78,0.00,,,0.00,Wunderground v.1.15,2013-03-25 08:13:00,
2013-03-25 04:18:00,32.9,26.8,29.66,East,89,9.0,9.0,78,0.00,,,0.00,Wunderground v.1.15,2013-03-25 08:18:00,
2013-03-25 04:23:00,33.0,26.6,29.66,ENE,75,5.0,10.0,77,0.00,,,0.00,Wunderground v.1.15,2013-03-25 08:23:00,
2013-03-25 04:28:00,33.0,26.6,29.66,ENE,65,4.0,10.0,77,0.00,,,0.00,Wunderground v.1.15,2013-03-25 08:28:00,
2013-03-25 04:33:00,33.0,26.6,29.66,East,79,6.0,11.0,77,0.00,,,0.00,Wunderground v.1.15,2013-03-25 08:33:00,
2013-03-25 04:38:00,33.0,26.6,29.66,NE,52,6.0,11.0,77,0.00,,,0.00,Wunderground v.1.15,2013-03-25 08:38:00,
2013-03-25 04:43:00,33.1,26.7,29.66,ENE,67,5.0,9.0,77,0.00,,,0.00,Wunderground v.1.15,2013-03-25 08:43:00,
2013-03-25 04:48:00,33.2,26.8,29.66,East,86,7.0,11.0,77,0.00,,,0.00,Wunderground v.1.15,2013-03-25 08:48:00,
2013-03-25 04:53:00,33.2,26.8,29.66,ENE,78,9.0,13.0,77,0.00,,,0.00,Wunderground v.1.15,2013-03-25 08:53:00,
2013-03-25 04:58:00,33.2,26.5,29.66,ENE,72,8.0,13.0,76,0.00,,,0.00,Wunderground v.1.15,2013-03-25 08:58:00,
2013-03-25 05:03:00,33.3,26.5,29.66,East,93,10.0,13.0,76,0.00,,,0.00,Wunderground v.1.15,2013-03-25 09:03:00,
2013-03-25 05:09:00,33.3,26.5,29.66,ENE,70,7.0,15.0,76,0.00,,,0.00,Wunderground v.1.15,2013-03-25 09:09:00,
2013-03-25 05:14:00,33.4,26.3,29.66,ENE,74,7.0,13.0,75,0.00,,,0.00,Wunderground v.1.15,2013-03-25 09:14:00,
2013-03-25 05:19:00,33.4,26.3,29.66,ENE,69,8.0,13.0,75,0.00,,,0.00,Wunderground v.1.15,2013-03-25 09:19:00,
2013-03-25 05:24:00,33.3,26.2,29.66,ENE,78,9.0,13.0,75,0.00,,,0.00,Wunderground v.1.15,2013-03-25 09:24:00,
2013-03-25 05:29:00,33.4,26.0,29.66,ENE,78,8.0,15.0,74,0.00,,,0.00,Wunderground v.1.15,2013-03-25 09:29:00,
2013-03-25 05:34:00,33.4,26.3,29.66,ENE,72,8.0,13.0,75,0.00,,,0.00,Wunderground v.1.15,2013-03-25 09:34:00,
2013-03-25 05:39:00,33.3,26.2,29.66,ENE,67,5.0,13.0,75,0.00,,,0.00,Wunderground v.1.15,2013-03-25 09:39:00,
2013-03-25 05:44:00,33.3,25.9,29.66,East,92,7.0,13.0,74,0.00,,,0.00,Wunderground v.1.15,2013-03-25 09:44:00,
2013-03-25 05:49:00,33.2,25.8,29.66,ENE,73,7.0,14.0,74,0.00,,,0.00,Wunderground v.1.15,2013-03-25 09:49:00,
2013-03-25 05:54:00,33.2,26.1,29.66,ENE,75,4.0,13.0,75,0.00,,,0.00,Wunderground v.1.15,2013-03-25 09:54:00,
2013-03-25 05:59:00,33.3,25.9,29.67,East,82,7.0,13.0,74,0.00,,,0.00,Wunderground v.1.15,2013-03-25 09:59:00,
2013-03-25 06:04:00,33.3,26.2,29.66,ENE,72,7.0,13.0,75,0.00,,,0.00,Wunderground v.1.15,2013-03-25 10:04:00,
2013-03-25 06:09:00,33.2,26.1,29.66,ENE,78,8.0,13.0,75,0.00,,,0.00,Wunderground v.1.15,2013-03-25 10:09:00,
2013-03-25 06:14:00,33.2,25.8,29.66,East,82,7.0,13.0,74,0.00,,,0.00,Wunderground v.1.15,2013-03-25 10:14:00,
2013-03-25 06:19:00,33.2,25.8,29.66,ENE,61,7.0,13.0,74,0.00,,,0.00,Wunderground v.1.15,2013-03-25 10:19:00,
2013-03-25 06:24:00,33.3,25.9,29.67,ENE,75,5.0,11.0,74,0.00,,,0.00,Wunderground v.1.15,2013-03-25 10:24:00,
2013-03-25 06:29:00,33.3,25.9,29.67,ENE,78,4.0,11.0,74,0.00,,,0.00,Wunderground v.1.15,2013-03-25 10:29:00,
2013-03-25 06:34:00,33.2,25.8,29.67,ENE,72,3.0,9.0,74,0.00,,,0.00,Wunderground v.1.15,2013-03-25 10:34:00,
2013-03-25 06:39:00,33.1,25.7,29.67,East,80,3.0,9.0,74,0.00,,,0.00,Wunderground v.1.15,2013-03-25 10:39:00,
2013-03-25 06:44:00,33.0,25.9,29.67,ENE,74,3.0,6.0,75,0.00,,,0.00,Wunderground v.1.15,2013-03-25 10:44:00,
2013-03-25 06:49:00,32.8,25.7,29.67,East,84,6.0,8.0,75,0.00,,,0.00,Wunderground v.1.15,2013-03-25 10:49:00,
2013-03-25 06:54:00,32.8,25.7,29.67,ENE,72,4.0,5.0,75,0.00,,,0.00,Wunderground v.1.15,2013-03-25 10:54:00,
2013-03-25 06:59:00,32.6,25.9,29.67,East,93,1.0,8.0,76,0.00,,,0.00,Wunderground v.1.15,2013-03-25 10:59:00,
2013-03-25 07:04:00,32.5,25.8,29.67,East,82,3.0,5.0,76,0.00,,,0.00,Wunderground v.1.15,2013-03-25 11:04:00,
2013-03-25 07:10:00,32.5,25.8,29.67,ENE,76,3.0,7.0,76,0.00,,,0.00,Wunderground v.1.15,2013-03-25 11:10:00,
2013-03-25 07:15:00,32.4,25.7,29.67,ENE,76,3.0,4.0,76,0.00,,,0.00,Wunderground v.1.15,2013-03-25 11:15:00,
2013-03-25 07:20:00,32.3,25.6,29.67,East,84,3.0,5.0,76,0.00,,,0.00,Wunderground v.1.15,2013-03-25 11:20:00,
2013-03-25 07:25:00,32.2,25.5,29.67,ENE,69,4.0,6.0,76,0.00,,,0.00,Wunderground v.1.15,2013-03-25 11:25:00,
2013-03-25 07:30:00,32.1,25.4,29.67,East,94,2.0,6.0,76,0.00,,,0.00,Wunderground v.1.15,2013-03-25 11:30:00,
2013-03-25 07:35:00,32.1,25.4,29.67,ENE,76,3.0,5.0,76,0.00,,,0.00,Wunderground v.1.15,2013-03-25 11:35:00,
2013-03-25 07:40:00,32.1,25.4,29.67,ENE,76,3.0,7.0,76,0.00,,,0.00,Wunderground v.1.15,2013-03-25 11:40:00,
2013-03-25 07:45:00,32.1,25.4,29.67,East,79,2.0,6.0,76,0.00,,,0.00,Wunderground v.1.15,2013-03-25 11:45:00,
2013-03-25 07:50:00,32.1,25.4,29.67,ENE,77,2.0,6.0,76,0.00,,,0.00,Wunderground v.1.15,2013-03-25 11:50:00,
2013-03-25 07:55:00,32.1,25.4,29.66,East,98,5.0,5.0,76,0.00,,,0.00,Wunderground v.1.15,2013-03-25 11:55:00,
2013-03-25 08:00:00,32.2,25.5,29.66,East,89,3.0,5.0,76,0.00,,,0.00,Wunderground v.1.15,2013-03-25 12:00:00,
2013-03-25 08:05:00,32.4,25.4,29.66,East,88,5.0,7.0,75,0.00,,,0.00,Wunderground v.1.15,2013-03-25 12:05:00,
2013-03-25 08:10:00,32.6,25.6,29.66,ENE,78,5.0,7.0,75,0.00,,,0.00,Wunderground v.1.15,2013-03-25 12:10:00,
2013-03-25 08:15:00,32.8,25.7,29.66,East,80,8.0,9.0,75,0.00,,,0.00,Wunderground v.1.15,2013-03-25 12:15:00,
2013-03-25 08:20:00,33.1,25.7,29.66,East,82,9.0,9.0,74,0.00,,,0.00,Wunderground v.1.15,2013-03-25 12:20:00,
2013-03-25 08:25:00,33.4,26.0,29.66,ENE,73,3.0,9.0,74,0.00,,,0.00,Wunderground v.1.15,2013-03-25 12:25:00,
2013-03-25 08:30:00,33.5,25.8,29.66,East,92,6.0,6.0,73,0.00,,,0.00,Wunderground v.1.15,2013-03-25 12:30:00,
2013-03-25 08:35:00,33.9,26.2,29.66,East,92,7.0,9.0,73,0.00,,,0.00,Wunderground v.1.15,2013-03-25 12:35:00,
2013-03-25 08:40:00,34.2,25.8,29.66,ENE,78,7.0,7.0,71,0.00,,,0.00,Wunderground v.1.15,2013-03-25 12:40:00,
2013-03-25 08:46:00,34.7,26.3,29.66,East,84,6.0,9.0,71,0.00,,,0.00,Wunderground v.1.15,2013-03-25 12:46:00,
2013-03-25 08:51:00,35.1,26.3,29.66,ENE,66,8.0,10.0,70,0.00,,,0.00,Wunderground v.1.15,2013-03-25 12:51:00,
2013-03-25 08:56:00,35.4,26.2,29.65,East,85,5.0,11.0,69,0.00,,,0.00,Wunderground v.1.15,2013-03-25 12:56:00,
2013-03-25 09:01:00,35.9,26.4,29.65,East,82,7.0,9.0,68,0.00,,,0.00,Wunderground v.1.15,2013-03-25 13:01:00,
2013-03-25 09:06:00,35.9,26.4,29.65,East,84,6.0,9.0,68,0.00,,,0.00,Wunderground v.1.15,2013-03-25 13:06:00,
2013-03-25 09:11:00,36.1,26.2,29.65,East,97,2.0,11.0,67,0.00,,,0.00,Wunderground v.1.15,2013-03-25 13:11:00,
2013-03-25 09:17:00,36.1,25.8,29.65,East,80,6.0,11.0,66,0.00,,,0.00,Wunderground v.1.15,2013-03-25 13:17:00,
2013-03-25 09:22:00,36.1,26.2,29.65,ENE,74,3.0,7.0,67,0.00,,,0.00,Wunderground v.1.15,2013-03-25 13:22:00,
2013-03-25 09:27:00,36.1,25.8,29.65,ENE,77,5.0,10.0,66,0.00,,,0.00,Wunderground v.1.15,2013-03-25 13:27:00,
2013-03-25 09:32:00,36.2,25.9,29.65,ENE,76,7.0,8.0,66,0.00,,,0.00,Wunderground v.1.15,2013-03-25 13:32:00,
2013-03-25 09:37:00,36.4,26.1,29.65,ESE,123,5.0,9.0,66,0.00,,,0.00,Wunderground v.1.15,2013-03-25 13:37:00,
2013-03-25 09:42:00,36.6,26.3,29.65,East,80,9.0,10.0,66,0.00,,,0.00,Wunderground v.1.15,2013-03-25 13:42:00,
2013-03-25 09:47:00,36.7,26.4,29.65,East,84,7.0,11.0,66,0.00,,,0.00,Wunderground v.1.15,2013-03-25 13:47:00,
2013-03-25 09:52:00,36.7,26.0,29.65,East,82,10.0,13.0,65,0.00,,,0.00,Wunderground v.1.15,2013-03-25 13:52:00,
2013-03-25 09:57:00,36.8,26.1,29.65,ENE,69,7.0,13.0,65,0.00,,,0.00,Wunderground v.1.15,2013-03-25 13:57:00,
2013-03-25 10:02:00,37.0,26.3,29.65,ENE,62,4.0,8.0,65,0.00,,,0.00,Wunderground v.1.15,2013-03-25 14:02:00,
2013-03-25 10:07:00,37.1,26.4,29.64,East,80,8.0,10.0,65,0.00,,,0.00,Wunderground v.1.15,2013-03-25 14:07:00,
2013-03-25 10:12:00,37.5,26.8,29.64,ENE,70,9.0,9.0,65,0.00,,,0.00,Wunderground v.1.15,2013-03-25 14:12:00,
2013-03-25 10:17:00,37.7,26.6,29.64,East,82,8.0,11.0,64,0.00,,,0.00,Wunderground v.1.15,2013-03-25 14:17:00,
2013-03-25 10:22:00,37.8,26.7,29.64,ENE,68,4.0,9.0,64,0.00,,,0.00,Wunderground v.1.15,2013-03-25 14:22:00,
2013-03-25 10:27:00,37.9,26.4,29.64,East,81,9.0,9.0,63,0.00,,,0.00,Wunderground v.1.15,2013-03-25 14:27:00,
2013-03-25 10:32:00,38.3,26.8,29.64,East,98,9.0,11.0,63,0.00,,,0.00,Wunderground v.1.15,2013-03-25 14:32:00,
2013-03-25 10:37:00,38.6,27.5,29.64,ENE,74,5.0,11.0,64,0.00,,,0.00,Wunderground v.1.15,2013-03-25 14:37:00,
2013-03-25 10:42:00,38.8,28.0,29.64,NE,40,5.0,10.0,65,0.00,,,0.00,Wunderground v.1.15,2013-03-25 14:42:00,
2013-03-25 10:48:00,38.9,28.5,29.64,ENE,73,5.0,10.0,66,0.00,,,0.00,Wunderground v.1.15,2013-03-25 14:48:00,
2013-03-25 10:53:00,39.0,28.6,29.64,ENE,71,5.0,6.0,66,0.00,,,0.00,Wunderground v.1.15,2013-03-25 14:53:00,
2013-03-25 10:58:00,39.2,28.8,29.64,East,86,5.0,10.0,66,0.00,,,0.00,Wunderground v.1.15,2013-03-25 14:58:00,
2013-03-25 11:03:00,39.3,28.9,29.64,NE,42,3.0,8.0,66,0.00,,,0.00,Wunderground v.1.15,2013-03-25 15:03:00,
2013-03-25 11:08:00,39.3,28.9,29.64,ENE,78,9.0,9.0,66,0.00,,,0.00,Wunderground v.1.15,2013-03-25 15:08:00,
2013-03-25 11:13:00,39.5,29.1,29.64,East,88,7.0,8.0,66,0.00,,,0.00,Wunderground v.1.15,2013-03-25 15:13:00,
2013-03-25 11:18:00,39.6,29.2,29.64,ENE,71,12.0,12.0,66,0.00,,,0.00,Wunderground v.1.15,2013-03-25 15:18:00,
2013-03-25 11:23:00,39.7,29.3,29.64,ENE,74,4.0,9.0,66,0.00,,,0.00,Wunderground v.1.15,2013-03-25 15:23:00,
2013-03-25 11:28:00,39.8,29.4,29.63,NNE,14,7.0,13.0,66,0.00,,,0.00,Wunderground v.1.15,2013-03-25 15:28:00,
2013-03-25 11:33:00,40.1,29.3,29.63,ENE,65,7.0,12.0,65,0.00,,,0.00,Wunderground v.1.15,2013-03-25 15:33:00,
2013-03-25 11:38:00,40.4,29.6,29.63,East,82,7.0,13.0,65,0.00,,,0.00,Wunderground v.1.15,2013-03-25 15:38:00,
2013-03-25 11:43:00,40.6,29.4,29.63,NE,44,5.0,13.0,64,0.00,,,0.00,Wunderground v.1.15,2013-03-25 15:43:00,
2013-03-25 11:48:00,40.9,29.7,29.63,ENE,69,12.0,13.0,64,0.00,,,0.00,Wunderground v.1.15,2013-03-25 15:48:00,
2013-03-25 11:53:00,41.1,29.8,29.63,ENE,65,9.0,12.0,64,0.00,,,0.00,Wunderground v.1.15,2013-03-25 15:53:00,
2013-03-25 11:58:00,41.2,29.5,29.63,East,84,6.0,12.0,63,0.00,,,0.00,Wunderground v.1.15,2013-03-25 15:58:00,
2013-03-25 12:03:00,41.4,29.3,29.63,NNE,21,8.0,14.0,62,0.00,,,0.00,Wunderground v.1.15,2013-03-25 16:03:00,
2013-03-25 12:08:00,41.5,30.2,29.63,ENE,75,4.0,14.0,64,0.00,,,0.00,Wunderground v.1.15,2013-03-25 16:08:00,
2013-03-25 12:13:00,41.3,29.3,29.63,East,80,6.0,13.0,62,0.00,,,0.00,Wunderground v.1.15,2013-03-25 16:13:00,
2013-03-25 12:18:00,41.0,30.5,29.63,East,80,9.0,13.0,66,0.00,,,0.00,Wunderground v.1.15,2013-03-25 16:18:00,
2013-03-25 12:23:00,40.8,29.2,29.63,East,84,10.0,12.0,63,0.00,,,0.00,Wunderground v.1.15,2013-03-25 16:23:00,
2013-03-25 12:28:00,40.9,29.3,29.63,NNE,32,6.0,13.0,63,0.00,,,0.00,Wunderground v.1.15,2013-03-25 16:28:00,
2013-03-25 12:33:00,41.0,29.7,29.63,East,86,6.0,13.0,64,0.00,,,0.00,Wunderground v.1.15,2013-03-25 16:33:00,
2013-03-25 12:38:00,41.2,29.9,29.63,ENE,74,9.0,13.0,64,0.00,,,0.00,Wunderground v.1.15,2013-03-25 16:38:00,
2013-03-25 12:43:00,41.2,29.5,29.63,NE,45,7.0,14.0,63,0.00,,,0.00,Wunderground v.1.15,2013-03-25 16:43:00,
2013-03-25 12:48:00,41.3,29.6,29.63,ENE,61,11.0,14.0,63,0.00,,,0.00,Wunderground v.1.15,2013-03-25 16:48:00,
2013-03-25 12:53:00,41.2,29.2,29.62,ENE,71,7.0,15.0,62,0.00,,,0.00,Wunderground v.1.15,2013-03-25 16:53:00,
2013-03-25 12:58:00,40.9,29.7,29.62,ENE,75,13.0,15.0,64,0.00,,,0.00,Wunderground v.1.15,2013-03-25 16:58:00,
2013-03-25 13:03:00,40.6,29.4,29.62,ENE,75,11.0,15.0,64,0.00,,,0.00,Wunderground v.1.15,2013-03-25 17:03:00,
2013-03-25 13:09:00,40.3,29.1,29.62,NNE,19,6.0,15.0,64,0.00,,,0.00,Wunderground v.1.15,2013-03-25 17:09:00,
2013-03-25 13:14:00,40.5,29.3,29.62,East,82,11.0,13.0,64,0.00,,,0.00,Wunderground v.1.15,2013-03-25 17:14:00,
2013-03-25 13:19:00,40.8,29.6,29.62,East,89,10.0,13.0,64,0.00,,,0.00,Wunderground v.1.15,2013-03-25 17:19:00,
2013-03-25 13:24:00,41.2,30.3,29.62,East,95,8.0,14.0,65,0.00,,,0.00,Wunderground v.1.15,2013-03-25 17:24:00,
2013-03-25 13:29:00,41.4,29.3,29.62,NE,56,4.0,15.0,62,0.00,,,0.00,Wunderground v.1.15,2013-03-25 17:29:00,
2013-03-25 13:34:00,41.1,29.8,29.62,East,83,6.0,13.0,64,0.00,,,0.00,Wunderground v.1.15,2013-03-25 17:34:00,
2013-03-25 13:39:00,41.1,30.2,29.62,NNE,15,7.0,13.0,65,0.00,,,0.00,Wunderground v.1.15,2013-03-25 17:39:00,
2013-03-25 13:44:00,41.1,30.6,29.62,North,360,6.0,15.0,66,0.00,,,0.00,Wunderground v.1.15,2013-03-25 17:44:00,
2013-03-25 13:49:00,40.6,29.7,29.62,North,11,12.0,15.0,65,0.00,,,0.00,Wunderground v.1.15,2013-03-25 17:49:00,
2013-03-25 13:54:00,40.5,30.8,29.62,North,360,6.0,15.0,68,0.00,,,0.00,Wunderground v.1.15,2013-03-25 17:54:00,
2013-03-25 13:59:00,40.4,30.7,29.62,NNE,32,9.0,16.0,68,0.00,,,0.00,Wunderground v.1.15,2013-03-25 17:59:00,
2013-03-25 14:04:00,40.3,30.2,29.62,East,81,9.0,17.0,67,0.00,,,0.00,Wunderground v.1.15,2013-03-25 18:04:00,
2013-03-25 14:09:00,40.1,29.6,29.61,NE,47,12.0,17.0,66,0.00,,,0.00,Wunderground v.1.15,2013-03-25 18:09:00,
2013-03-25 14:14:00,40.1,29.6,29.61,ENE,76,13.0,16.0,66,0.00,,,0.00,Wunderground v.1.15,2013-03-25 18:14:00,
2013-03-25 14:19:00,40.1,30.0,29.61,ENE,63,9.0,18.0,67,0.00,,,0.00,Wunderground v.1.15,2013-03-25 18:19:00,
2013-03-25 14:24:00,40.3,30.6,29.61,SE,124,3.0,11.0,68,0.00,,,0.00,Wunderground v.1.15,2013-03-25 18:24:00,
2013-03-25 14:29:00,40.7,30.6,29.61,ENE,70,11.0,15.0,67,0.00,,,0.00,Wunderground v.1.15,2013-03-25 18:29:00,
2013-03-25 14:34:00,40.8,31.4,29.61,ENE,76,7.0,15.0,69,0.00,,,0.00,Wunderground v.1.15,2013-03-25 18:34:00,
2013-03-25 14:39:00,40.8,31.4,29.61,NNE,26,5.0,15.0,69,0.00,,,0.00,Wunderground v.1.15,2013-03-25 18:39:00,
2013-03-25 14:44:00,41.0,30.5,29.61,NE,55,13.0,15.0,66,0.00,,,0.00,Wunderground v.1.15,2013-03-25 18:44:00,
2013-03-25 14:49:00,41.0,29.7,29.61,North,9,5.0,16.0,64,0.00,,,0.00,Wunderground v.1.15,2013-03-25 18:49:00,
2013-03-25 14:54:00,40.7,29.1,29.61,East,82,6.0,13.0,63,0.00,,,0.00,Wunderground v.1.15,2013-03-25 18:54:00,
2013-03-25 14:59:00,41.0,29.4,29.61,East,82,9.0,13.0,63,0.00,,,0.00,Wunderground v.1.15,2013-03-25 18:59:00,
2013-03-25 15:04:00,41.6,29.9,29.61,NE,44,6.0,13.0,63,0.00,,,0.00,Wunderground v.1.15,2013-03-25 19:04:00,
2013-03-25 15:09:00,42.0,31.5,29.61,North,5,11.0,13.0,66,0.00,,,0.00,Wunderground v.1.15,2013-03-25 19:09:00,
2013-03-25 15:14:00,41.9,29.4,29.61,NNE,24,11.0,17.0,61,0.00,,,0.00,Wunderground v.1.15,2013-03-25 19:14:00,
2013-03-25 15:19:00,41.6,30.7,29.61,North,5,12.0,17.0,65,0.00,,,0.00,Wunderground v.1.15,2013-03-25 19:19:00,
2013-03-25 15:24:00,41.4,30.1,29.61,NNE,15,9.0,17.0,64,0.00,,,0.00,Wunderground v.1.15,2013-03-25 19:24:00,
2013-03-25 15:30:00,41.5,30.2,29.61,NNE,29,10.0,17.0,64,0.00,,,0.00,Wunderground v.1.15,2013-03-25 19:30:00,
2013-03-25 15:35:00,41.4,29.7,29.61,North,5,14.0,14.0,63,0.00,,,0.00,Wunderground v.1.15,2013-03-25 19:35:00,
2013-03-25 15:40:00,41.1,30.2,29.61,ENE,74,13.0,14.0,65,0.00,,,0.00,Wunderground v.1.15,2013-03-25 19:40:00,
2013-03-25 15:45:00,40.9,30.0,29.61,NNE,21,4.0,14.0,65,0.00,,,0.00,Wunderground v.1.15,2013-03-25 19:45:00,
2013-03-25 15:50:00,41.0,30.1,29.61,East,79,7.0,14.0,65,0.00,,,0.00,Wunderground v.1.15,2013-03-25 19:50:00,
2013-03-25 15:55:00,40.9,30.0,29.61,East,80,10.0,14.0,65,0.00,,,0.00,Wunderground v.1.15,2013-03-25 19:55:00,
2013-03-25 16:00:00,41.0,30.9,29.61,NE,40,5.0,14.0,67,0.00,,,0.00,Wunderground v.1.15,2013-03-25 20:00:00,
2013-03-25 16:05:00,41.0,31.2,29.61,ENE,78,8.0,13.0,68,0.00,,,0.00,Wunderground v.1.15,2013-03-25 20:05:00,
2013-03-25 16:10:00,41.0,31.2,29.61,North,5,12.0,13.0,68,0.00,,,0.00,Wunderground v.1.15,2013-03-25 20:10:00,
2013-03-25 16:15:00,40.8,31.4,29.61,East,98,8.0,14.0,69,0.00,,,0.00,Wunderground v.1.15,2013-03-25 20:15:00,
2013-03-25 16:20:00,40.9,31.5,29.61,ENE,65,9.0,14.0,69,0.00,,,0.00,Wunderground v.1.15,2013-03-25 20:20:00,
2013-03-25 16:25:00,41.0,33.0,29.61,East,79,5.0,11.0,73,0.00,,,0.00,Wunderground v.1.15,2013-03-25 20:25:00,
2013-03-25 16:30:00,40.9,31.5,29.61,North,11,12.0,14.0,69,0.00,,,0.00,Wunderground v.1.15,2013-03-25 20:30:00,
2013-03-25 16:35:00,40.7,31.3,29.62,NE,40,8.0,13.0,69,0.00,,,0.00,Wunderground v.1.15,2013-03-25 20:35:00,
2013-03-25 16:40:00,40.6,31.6,29.62,NNE,28,13.0,19.0,70,0.00,,,0.00,Wunderground v.1.15,2013-03-25 20:40:00,
2013-03-25 16:45:00,40.4,31.7,29.62,NNE,12,9.0,17.0,71,0.00,,,0.00,Wunderground v.1.15,2013-03-25 20:45:00,
2013-03-25 16:50:00,40.4,31.7,29.62,NNE,13,7.0,17.0,71,0.00,,,0.00,Wunderground v.1.15,2013-03-25 20:50:00,
2013-03-25 16:55:00,40.4,31.7,29.62,East,84,8.0,18.0,71,0.00,,,0.00,Wunderground v.1.15,2013-03-25 20:55:00,
2013-03-25 17:00:00,40.2,31.5,29.62,East,79,5.0,18.0,71,0.00,,,0.00,Wunderground v.1.15,2013-03-25 21:00:00,
2013-03-25 17:05:00,40.0,31.4,29.62,East,85,7.0,16.0,71,0.00,,,0.00,Wunderground v.1.15,2013-03-25 21:05:00,
2013-03-25 17:10:00,39.8,31.2,29.63,ENE,63,9.0,19.0,71,0.00,,,0.00,Wunderground v.1.15,2013-03-25 21:10:00,
2013-03-25 17:15:00,39.6,31.0,29.62,NNE,15,9.0,18.0,71,0.00,,,0.00,Wunderground v.1.15,2013-03-25 21:15:00,
2013-03-25 17:20:00,39.5,30.9,29.62,NE,43,9.0,18.0,71,0.00,,,0.00,Wunderground v.1.15,2013-03-25 21:20:00,
2013-03-25 17:25:00,39.3,31.0,29.63,NE,39,6.0,15.0,72,0.00,,,0.00,Wunderground v.1.15,2013-03-25 21:25:00,
2013-03-25 17:30:00,39.2,30.9,29.63,NNE,32,8.0,9.0,72,0.00,,,0.00,Wunderground v.1.15,2013-03-25 21:30:00,
2013-03-25 17:35:00,39.0,30.7,29.63,ENE,59,9.0,15.0,72,0.00,,,0.00,Wunderground v.1.15,2013-03-25 21:35:00,
2013-03-25 17:40:00,38.9,30.6,29.63,ENE,69,11.0,11.0,72,0.00,,,0.00,Wunderground v.1.15,2013-03-25 21:40:00,
2013-03-25 17:45:00,38.9,30.6,29.63,East,101,9.0,12.0,72,0.00,,,0.00,Wunderground v.1.15,2013-03-25 21:45:00,
2013-03-25 17:50:00,38.8,30.5,29.63,NNE,26,6.0,9.0,72,0.00,,,0.00,Wunderground v.1.15,2013-03-25 21:50:00,
2013-03-25 17:55:00,38.8,30.5,29.63,ENE,68,2.0,19.0,72,0.00,,,0.00,Wunderground v.1.15,2013-03-25 21:55:00,
2013-03-25 18:00:00,38.9,30.6,29.64,NE,43,7.0,9.0,72,0.00,,,0.00,Wunderground v.1.15,2013-03-25 22:00:00,
2013-03-25 18:05:00,38.7,30.1,29.64,ENE,62,4.0,15.0,71,0.00,,,0.00,Wunderground v.1.15,2013-03-25 22:05:00,
2013-03-25 18:10:00,38.7,30.1,29.64,North,360,9.0,9.0,71,0.00,,,0.00,Wunderground v.1.15,2013-03-25 22:10:00,
2013-03-25 18:15:00,38.7,30.1,29.64,NE,48,9.0,13.0,71,0.00,,,0.00,Wunderground v.1.15,2013-03-25 22:15:00,
2013-03-25 18:20:00,38.6,30.0,29.65,NE,44,8.0,9.0,71,0.00,,,0.00,Wunderground v.1.15,2013-03-25 22:20:00,
2013-03-25 18:25:00,38.6,30.0,29.65,NE,51,8.0,12.0,71,0.00,,,0.00,Wunderground v.1.15,2013-03-25 22:25:00,
2013-03-25 18:30:00,38.5,29.9,29.65,ENE,69,9.0,9.0,71,0.00,,,0.00,Wunderground v.1.15,2013-03-25 22:30:00,
2013-03-25 18:35:00,38.4,30.2,29.65,ENE,78,12.0,12.0,72,0.00,,,0.00,Wunderground v.1.15,2013-03-25 22:35:00,
2013-03-25 18:41:00,38.3,29.7,29.66,NE,45,12.0,12.0,71,0.00,,,0.00,Wunderground v.1.15,2013-03-25 22:41:00,
2013-03-25 18:46:00,38.1,29.9,29.66,ENE,61,4.0,13.0,72,0.00,,,0.00,Wunderground v.1.15,2013-03-25 22:46:00,
2013-03-25 18:51:00,38.0,29.8,29.66,NNE,16,5.0,8.0,72,0.00,,,0.00,Wunderground v.1.15,2013-03-25 22:51:00,
2013-03-25 18:56:00,37.9,29.7,29.66,NNE,33,7.0,12.0,72,0.00,,,0.00,Wunderground v.1.15,2013-03-25 22:56:00,
2013-03-25 19:01:00,37.8,29.6,29.66,NNE,14,5.0,7.0,72,0.00,,,0.00,Wunderground v.1.15,2013-03-25 23:01:00,
2013-03-25 19:05:00,37.7,29.5,29.66,NNE,33,8.0,10.0,72,0.00,,,0.00,Wunderground v.1.15,2013-03-25 23:05:00,
2013-03-25 19:10:00,37.7,29.5,29.66,East,93,8.0,10.0,72,0.00,,,0.00,Wunderground v.1.15,2013-03-25 23:10:00,
2013-03-25 19:15:00,37.5,29.6,29.66,NNE,32,3.0,10.0,73,0.00,,,0.00,Wunderground v.1.15,2013-03-25 23:15:00,
2013-03-25 19:20:00,37.5,29.6,29.67,NE,34,3.0,4.0,73,0.00,,,0.00,Wunderground v.1.15,2013-03-25 23:20:00,
2013-03-25 19:25:00,37.4,29.5,29.67,NNE,26,1.0,7.0,73,0.00,,,0.00,Wunderground v.1.15,2013-03-25 23:25:00,
2013-03-25 19:31:00,37.2,29.7,29.67,NNE,18,2.0,6.0,74,0.00,,,0.00,Wunderground v.1.15,2013-03-25 23:31:00,
2013-03-25 19:36:00,37.2,29.7,29.67,NNE,13,4.0,7.0,74,0.00,,,0.00,Wunderground v.1.15,2013-03-25 23:36:00,
2013-03-25 19:41:00,37.1,29.9,29.67,NNE,29,3.0,4.0,75,0.00,,,0.00,Wunderground v.1.15,2013-03-25 23:41:00,
2013-03-25 19:46:00,37.0,29.8,29.67,NNE,15,2.0,5.0,75,0.00,,,0.00,Wunderground v.1.15,2013-03-25 23:46:00,
2013-03-25 19:51:00,36.9,29.7,29.67,NNE,17,3.0,4.0,75,0.00,,,0.00,Wunderground v.1.15,2013-03-25 23:51:00,
2013-03-25 19:56:00,36.8,29.9,29.67,North,5,3.0,6.0,76,0.00,,,0.00,Wunderground v.1.15,2013-03-25 23:56:00,
2013-03-25 20:01:00,36.7,29.8,29.68,North,360,6.0,6.0,76,0.00,,,0.00,Wunderground v.1.15,2013-03-26 00:01:00,
2013-03-25 20:06:00,36.6,30.1,29.68,North,5,5.0,6.0,77,0.00,,,0.00,Wunderground v.1.15,2013-03-26 00:06:00,
2013-03-25 20:11:00,36.5,30.3,29.68,North,355,2.0,3.0,78,0.00,,,0.00,Wunderground v.1.15,2013-03-26 00:11:00,
2013-03-25 20:16:00,36.4,30.2,29.68,North,10,5.0,5.0,78,0.00,,,0.00,Wunderground v.1.15,2013-03-26 00:16:00,
2013-03-25 20:21:00,36.3,30.1,29.68,North,11,3.0,3.0,78,0.00,,,0.00,Wunderground v.1.15,2013-03-26 00:21:00,
2013-03-25 20:26:00,36.2,30.3,29.68,North,11,1.0,4.0,79,0.00,,,0.00,Wunderground v.1.15,2013-03-26 00:26:00,
2013-03-25 20:31:00,36.1,29.9,29.68,NNE,23,2.0,3.0,78,0.00,,,0.00,Wunderground v.1.15,2013-03-26 00:31:00,
2013-03-25 20:37:00,36.1,30.2,29.68,NNE,22,1.0,3.0,79,0.00,,,0.00,Wunderground v.1.15,2013-03-26 00:37:00,
2013-03-25 20:42:00,35.9,30.0,29.68,NNE,22,1.0,2.0,79,0.00,,,0.00,Wunderground v.1.15,2013-03-26 00:42:00,
2013-03-25 20:47:00,35.8,30.2,29.69,NNE,22,0.0,3.0,80,0.00,,,0.00,Wunderground v.1.15,2013-03-26 00:47:00,
2013-03-25 20:52:00,35.8,30.2,29.69,NNE,22,1.0,3.0,80,0.00,,,0.00,Wunderground v.1.15,2013-03-26 00:52:00,
2013-03-25 20:57:00,35.7,30.1,29.69,NNE,22,0.0,3.0,80,0.00,,,0.00,Wunderground v.1.15,2013-03-26 00:57:00,
2013-03-25 21:02:00,35.7,30.1,29.69,NNE,22,0.0,3.0,80,0.00,,,0.00,Wunderground v.1.15,2013-03-26 01:02:00,
2013-03-25 21:07:00,35.6,30.0,29.69,NNE,22,0.0,3.0,80,0.00,,,0.00,Wunderground v.1.15,2013-03-26 01:07:00,
2013-03-25 21:12:00,35.5,30.2,29.70,NNE,22,0.0,1.0,81,0.00,,,0.00,Wunderground v.1.15,2013-03-26 01:12:00,
2013-03-25 21:17:00,35.3,30.1,29.69,NNE,22,0.0,1.0,81,0.00,,,0.00,Wunderground v.1.15,2013-03-26 01:17:00,
2013-03-25 21:22:00,35.1,30.2,29.70,NNE,22,0.0,2.0,82,0.00,,,0.00,Wunderground v.1.15,2013-03-26 01:22:00,
2013-03-25 21:27:00,35.0,30.1,29.70,NNE,22,0.0,2.0,82,0.00,,,0.00,Wunderground v.1.15,2013-03-26 01:27:00,
2013-03-25 21:32:00,34.7,30.1,29.69,NNE,22,1.0,1.0,83,0.00,,,0.00,Wunderground v.1.15,2013-03-26 01:32:00,
2013-03-25 21:37:00,34.7,30.4,29.70,NNE,22,0.0,2.0,84,0.00,,,0.00,Wunderground v.1.15,2013-03-26 01:37:00,
2013-03-25 21:42:00,34.7,30.4,29.70,NNE,22,1.0,3.0,84,0.00,,,0.00,Wunderground v.1.15,2013-03-26 01:42:00,
2013-03-25 21:47:00,34.8,30.5,29.70,NNE,22,0.0,3.0,84,0.00,,,0.00,Wunderground v.1.15,2013-03-26 01:47:00,
2013-03-25 21:52:00,34.7,30.4,29.70,NNE,22,0.0,2.0,84,0.00,,,0.00,Wunderground v.1.15,2013-03-26 01:52:00,
2013-03-25 21:57:00,34.6,30.3,29.70,NNE,22,0.0,2.0,84,0.00,,,0.00,Wunderground v.1.15,2013-03-26 01:57:00,
2013-03-25 22:02:00,34.5,30.5,29.70,NNE,22,0.0,1.0,85,0.00,,,0.00,Wunderground v.1.15,2013-03-26 02:02:00,
2013-03-25 22:07:00,34.2,29.9,29.70,NNE,22,0.0,2.0,84,0.00,,,0.00,Wunderground v.1.15,2013-03-26 02:07:00,
2013-03-25 22:12:00,34.1,30.4,29.70,North,355,2.0,3.0,86,0.00,,,0.00,Wunderground v.1.15,2013-03-26 02:12:00,
2013-03-25 22:17:00,34.2,30.4,29.70,NNW,333,1.0,4.0,86,0.00,,,0.00,Wunderground v.1.15,2013-03-26 02:17:00,
2013-03-25 22:22:00,34.2,30.7,29.70,NNW,333,0.0,2.0,87,0.00,,,0.00,Wunderground v.1.15,2013-03-26 02:22:00,
2013-03-25 22:28:00,34.3,30.8,29.70,NNW,333,0.0,2.0,87,0.00,,,0.00,Wunderground v.1.15,2013-03-26 02:28:00,
2013-03-25 22:33:00,34.1,30.6,29.70,NNW,333,0.0,1.0,87,0.00,,,0.00,Wunderground v.1.15,2013-03-26 02:33:00,
2013-03-25 22:38:00,34.0,30.5,29.70,NNW,333,1.0,2.0,87,0.00,,,0.00,Wunderground v.1.15,2013-03-26 02:38:00,
2013-03-25 22:43:00,34.2,31.0,29.70,NNW,341,0.0,3.0,88,0.00,,,0.00,Wunderground v.1.15,2013-03-26 02:43:00,
2013-03-25 22:48:00,34.3,30.8,29.70,NNW,341,0.0,3.0,87,0.00,,,0.00,Wunderground v.1.15,2013-03-26 02:48:00,
2013-03-25 22:53:00,34.5,31.0,29.70,NNW,341,0.0,2.0,87,0.00,,,0.00,Wunderground v.1.15,2013-03-26 02:53:00,
2013-03-25 22:58:00,34.6,30.8,29.70,NNW,341,0.0,2.0,86,0.00,,,0.00,Wunderground v.1.15,2013-03-26 02:58:00,
2013-03-25 23:03:00,34.7,30.9,29.70,NNW,341,2.0,2.0,86,0.00,,,0.00,Wunderground v.1.15,2013-03-26 03:03:00,
2013-03-25 23:08:00,34.8,31.0,29.70,NNW,341,1.0,4.0,86,0.00,,,0.00,Wunderground v.1.15,2013-03-26 03:08:00,
2013-03-25 23:13:00,34.9,31.1,29.70,NNW,341,1.0,1.0,86,0.00,,,0.00,Wunderground v.1.15,2013-03-26 03:13:00,
2013-03-25 23:18:00,35.0,31.2,29.70,NNW,341,1.0,2.0,86,0.00,,,0.00,Wunderground v.1.15,2013-03-26 03:18:00,
2013-03-25 23:23:00,35.2,31.4,29.70,NNW,341,0.0,2.0,86,0.00,,,0.00,Wunderground v.1.15,2013-03-26 03:23:00,
2013-03-25 23:28:00,35.3,31.2,29.70,NNW,341,1.0,2.0,85,0.00,,,0.00,Wunderground v.1.15,2013-03-26 03:28:00,
2013-03-25 23:33:00,35.3,31.2,29.70,NNW,341,0.0,2.0,85,0.00,,,0.00,Wunderground v.1.15,2013-03-26 03:33:00,
2013-03-25 23:38:00,35.4,31.6,29.71,NNW,341,1.0,3.0,86,0.00,,,0.00,Wunderground v.1.15,2013-03-26 03:38:00,
2013-03-25 23:43:00,35.5,31.7,29.71,NNW,341,1.0,2.0,86,0.00,,,0.00,Wunderground v.1.15,2013-03-26 03:43:00,
2013-03-25 23:48:00,35.6,31.8,29.71,NNW,342,2.0,3.0,86,0.00,,,0.00,Wunderground v.1.15,2013-03-26 03:48:00,
2013-03-25 23:53:00,35.6,31.5,29.71,NNW,342,0.0,3.0,85,0.00,,,0.00,Wunderground v.1.15,2013-03-26 03:53:00,
2013-03-25 23:58:00,35.4,31.6,29.70,NNW,342,1.0,3.0,86,0.00,,,0.00,Wunderground v.1.15,2013-03-26 03:58:00,